Regional Weather Roundup
Issued by NWS Charleston, SC

Current Version | Previous Version | Graphics & Text | Print | Product List | Glossary On
Versions: 1 2 3 4 5 6 7 8 9 10 11 12 13 14 15 16 17 18 19 20 21 22 23 24 25 26 27 28 29 30 31 32 33 34 35 36 37 38 39 40 41 42 43 44 45 46 47 48 49 50
398
ASUS42 KCHS 241512
RWRCHS

REGIONAL WEATHER ROUNDUP
NATIONAL WEATHER SERVICE CHARLESTON SC
1100 AM EDT MON APR 24 2017

NOTE: "FAIR" INDICATES FEW OR NO CLOUDS BELOW 12,000 FEET WITH NO
SIGNIFICANT WEATHER AND/OR OBSTRUCTIONS TO VISIBILITY.

NOT ALL STATIONS ARE QUALITY CONTROLLED. USE DATA WITH CAUTION...
ESPECIALLY DEWPOINT OBSERVATIONS.

SCZ027-030-031-034>040-042>050-241600-
...SOUTHEAST SOUTH CAROLINA...

CITY           SKY/WX    TMP DP  RH WIND       PRES   REMARKS
N CHARLESTON   PTSUNNY   70  64  81 SE7       29.69S
WATERFRONT PRK   N/A     70  67  90 S7        29.67F
JOHNS ISLAND   PTSUNNY   73  68  83 SE10      29.69S
PINOPOLIS      NOT AVBL
MONCKS CORNER  LGT RAIN  64  63  94 CALM      29.70F
SUMMERVILLE    FAIR      72  68  88 E6        29.70S
BEAUFORT MCAS  CLOUDY    75  71  87 S6        29.67F
BEAUFORT ARPT  LGT RAIN  72  66  83 W10       29.67S
HILTON HEAD IS PTSUNNY   73  66  78 SW14      29.68F
WALTERBORO     CLOUDY    72  68  88 E5        29.69S
ALLENDALE      LGT RAIN  66  66 100 VRB7      29.67S

...SOUTHERN MIDLANDS AND PEE DEE...

CITY           SKY/WX    TMP DP  RH WIND       PRES   REMARKS
GEORGETOWN     DRIZZLE   72  68  88 SE6       29.72S
KINGSTREE      CLOUDY    61  61 100 W15       29.77R
ORANGEBURG     CLOUDY    65  61  87 NE9       29.70F
BARNWELL       RAIN      66  64  94 E12       29.67F
AIKEN          CLOUDY    55  55 100 NE16G23   29.72F FOG
MANNING        LGT RAIN  61  59  94 NE10      29.73R
COLUMBIA       LGT RAIN  63  58  83 NE12      29.71F
SUMTER         LGT RAIN  59  57  94 NE15      29.73R
FLORENCE       TSTM      59  59 100 NE5       29.79R
MYRTLE BEACH   PTSUNNY   70  66  88 S3        29.74F
N MYRTLE BEACH LGT RAIN  73  68  84 SE8       29.73F

$$

GAZ063-065-086>088-099>101-113>116-118-119-134>141-150-241600-
...SOUTHEAST GEORGIA...

CITY           SKY/WX    TMP DP  RH WIND       PRES   REMARKS
SAVANNAH ARPT  CLOUDY    69  61  75 W15       29.71R
HUNTER AAF     PTSUNNY   70  66  88 W13       29.67S
FORT STEWART   MOSUNNY   71  58  62 W12       29.69S
STATESBORO     CLOUDY    68  67  99 W10       29.71S
SYLVANIA         N/A    N/A N/A N/A W3        29.71R
CLAXTON        PTSUNNY   69  66  90 SW8       29.72R

...CSRA...CENTRAL AND FAR SOUTHEAST GEORGIA...

CITY           SKY/WX    TMP DP  RH WIND       PRES   REMARKS
THOMSON        RAIN      55  54  96 NE8       29.78F FOG
AUGUSTA-BUSH   RAIN      62  60  93 NW10      29.69F
AUGUSTA-DANIEL TSTM      60  56  86 VRB5      29.72R FOG
SWAINSBORO     CLOUDY    63  61  94 W5        29.73S
VIDALIA        PTSUNNY   66  59  77 W7        29.73S
EASTMAN        CLOUDY    66  49  54 W6        29.76S
HAZLEHURST     FAIR      68  60  74 NW3       29.73S
ALMA           PTSUNNY   68  58  70 W5        29.73S
WAYCROSS       CLOUDY    73  56  56 W8        29.74R
JESUP          PTSUNNY   73  50  43 NW14      29.72S
BAXLEY         FAIR      70  59  68 W5        29.73R
BRUNSWICK      MOSUNNY   72  63  73 W9G16     29.73S
SAINT SIMONS   MOSUNNY   71  60  68 W10       29.72S

$$

SCZ027-028-034-036>038-045-046-048>050-GAZ119-141-241600-
...LAKE AND SUPPLEMENTAL COASTAL OBSERVATIONS...

STATION/POSITION TIME  TEMP    WIND        PRES    WAVE   SWELL
                       AIR SEA DIR/SP/G            HT/PER HT/PER/DIR
                 (UTC) (F)     (DEG/KT/KT) (MB)    (FT/S) (FT/S/D)
WINYAH BAY       NOT AVBL
LAKE MURRAY      1420   58      20/  2/  6 1007.1
ACE BASIN NERRS  1345   74        CALM     1005.0
FORT PULASKI     1448   70 74  260/ 10/ 15 1005.5R
SAPELO ISLAND    1400   68     270/ 10     1006.0

$$

ANZ835-935-AMZ111-154-330-350-352-354-370-450-454-472-241600-
...C-MAN AND BUOY OBSERVATIONS...

STATION/POSITION TIME  TEMP    WIND        PRES    WAVE   SWELL
                       AIR SEA DIR/SP/G            HT/PER HT/PER/DIR
                 (UTC) (F)     (DEG/KT/KT) (MB)    (FT/S) (FT/S/D)
BUOY 41004       1450   72 74  190/ 16/ 23 1005.5F   7/ 8   2/ 80/11
BUOY 41008       1450   68 72  250/ 16/ 19 1005.3R   4/ 8   3/110/ 8
FOLLY BEACH CMAN 1400   70     150/ 19/ 22 1005.9F
CAPERS NEARSHORE 1408   71 72  210/ 16/ 21 1005.8R
FRIPP NEARSHORE  1408   72 72  240/  8/ 12 1004.9S


STATION/POSITION TIME  TEMP    WIND        PRES    WAVE   SWELL
                       AIR SEA DIR/SP/G            HT/PER HT/PER/DIR
                 (UTC) (F)     (DEG/KT/KT) (MB)    (FT/S) (FT/S/D)
5E ST. MARYS GA  1430      73                N/A     3/13   2/ 90/13
FRYING PAN BUOY  1450   73 75  120/ 19/ 23 1007.1S   7/ 7   2/ 80/11
BUOY 41025       1450   76 79  130/ 23/ 27 1011.1S   7/11   5/ 60/11
CAPE LOOKOUT NC  1400   67     140/ 14/ 15 1010.6R
BUOY 41002       1450   71 75  120/ 29/ 37 1009.2F   7/ 7   2/ 30/11
BUOY 41010       1450   75 78  260/ 10/ 14 1006.5R   7/ 8   7/120/ 8
ST AUGUSTINE FL  1500   73 75  250/ 11/ 14 1007.7R


$$




USA.gov is the U.S. government's official web portal to all federal, state and local government web resources and services.